Regional Weather Roundup
Issued by NWS

Home | Current Version | Previous Version | Graphics & Text | Print | Product List | Glossary On
Versions: 1 2 3 4 5 6 7 8 9 10 11 12 13 14 15 16 17 18 19 20 21 22 23 24 25 26 27 28 29 30 31 32 33 34 35 36 37 38 39 40 41 42 43 44 45 46 47 48 49 50
000
ASUS43 KLOT 172103
RWRIL

ILLINOIS REGIONAL WEATHER ROUNDUP
NATIONAL WEATHER SERVICE CHICAGO/ROMEOVILLE IL
300 PM CST FRI NOV 17 2017

NOTE: "FAIR" INDICATES FEW OR NO CLOUDS BELOW 12,000 FEET WITH NO
SIGNIFICANT WEATHER AND/OR OBSTRUCTIONS TO VISIBILITY.

* THESE STATIONS ARE NOT UNDER NWS QUALITY CONTROL. THEY ALSO MAY NOT
  REPORT WEATHER SUCH AS PRECIPITATION OR FOG.

ILZ001-002-007-009-015-016-024-172200-
NORTHWEST ILLINOIS

CITY           SKY/WX    TMP DP  RH WIND       PRES   REMARKS
MOLINE         CLOUDY    44  39  82 SE8       29.67F HAZE
STERLING*      CLOUDY    41  37  86 SE12      29.71F
SAVANNA*       CLOUDY    41  37  86 S10       29.69F
$$

ILZ003-004-008-010-011-017-018-172200-
NORTH CENTRAL ILLINOIS

CITY           SKY/WX    TMP DP  RH WIND       PRES   REMARKS
ROCKFORD       DRIZZLE   39  35  86 S16G24    29.75F FOG     WCI  30
FREEPORT*      CLOUDY    38  36  94 SE14      29.71F FOG     WCI  29
ROCHELLE*      CLOUDY    39  36  89 SE22G31   29.73F WCI  28
DE KALB*       CLOUDY    38  35  87 S21       29.76F WCI  28
PERU*          CLOUDY    39  36  89 SE15      29.75F FOG     WCI  30
$$

ILZ005-006-012>014-019>023-172200-
NORTHEAST ILLINOIS

CITY           SKY/WX    TMP DP  RH WIND       PRES   REMARKS
CHICAGO-OHARE  LGT RAIN  40  36  86 S20G25    29.80F FOG
CHICAGO-MIDWAY LGT RAIN  42  37  82 S12G22    29.82F
AURORA         CLOUDY    39  35  86 SE15      29.78F WCI  31
LANSING*       LGT RAIN  42  36  79 S8        29.86F
JOLIET*        CLOUDY    41  37  83 SE9G17    29.81F
WAUKEGAN       CLOUDY    42  34  73 S20       29.79F
DUPAGE AIRPORT CLOUDY    38  37  97 SE12G23   29.79F FOG     WCI  30
KANKAKEE*      CLOUDY    41  34  76 SE14      29.84F
WHEELING       LGT RAIN  41  38  89 S17       29.81F FOG
MORRIS*        CLOUDY    39  36  86 SE13G18   29.78F WCI  32
ROMEOVILLE*    CLOUDY    39  36  87 S14       29.80F WCI  31
NORTHERLY ISL    N/A     41  35  79 S8          N/A
$$

LMZ740>746-172200-
SOUTHERN LAKE MICHIGAN

STATION/POSITION SKY/WX   TEMP    WIND        PRES    VSBY  WAVE
                          AIR SEA DIR/SP/G                  HT/PER
                          (F)     (DEG/KT/KT) (MB)    (MI)  (FT/S)
SOUTHERN BUOY              45 50  150/ 23/ 27 1011.7          5/ 6
HARRISON CRIB              43     180/ 25/ 28   N/A
BURNHAM HARBOR             41     160/  6/ 14   N/A
BURNS HARBOR               45     170/ 13/ 19 1011.5F
MICHIGAN CITY              45     150/ 13/ 15   N/A
$$

ILZ025>027-034>036-040-047-049-050-058-095>099-172200-
WEST-CENTRAL ILLINOIS

CITY           SKY/WX    TMP DP  RH WIND       PRES   REMARKS
QUINCY         CLOUDY    52  43  71 SE15      29.63F
GALESBURG*     CLOUDY    44  40  87 SE10G16   29.69F
MACOMB*        CLOUDY    46  41  84 S17       29.69F
JACKSONVILLE*  CLOUDY    50  43  75 S15       29.73F
PITTSFIELD*    PTSUNNY   52  44  74 SE16      29.68F
$$

ILZ028>032-037-038-041>044-048-051>054-059>061-172200-
CENTRAL ILLINOIS

CITY           SKY/WX    TMP DP  RH WIND       PRES   REMARKS
PONTIAC        CLOUDY    42  41  95 SE20      29.78F
BLOOMINGTON    CLOUDY    41  38  89 SE21      29.77F
DECATUR        CLOUDY    44  39  82 S16       29.81F
PEORIA         LGT RAIN  43  40  89 S13       29.73F FOG
LACON*         CLOUDY    42  38  86 S14G21    29.73F
LINCOLN*       CLOUDY    46  41  84 S20G25    29.76F
SPRINGFIELD    PTSUNNY   48  41  76 S18       29.76F
TAYLORVILLE    CLOUDY    46  40  79 SE16      29.77F
$$

ILZ033-039-045-046-055>057-062-063-172200-
EAST-CENTRAL ILLINOIS

CITY           SKY/WX    TMP DP  RH WIND       PRES   REMARKS
CHAMPAIGN      CLOUDY    43  38  82 SE15G24   29.84F
DANVILLE*      CLOUDY    43  35  72 S12       29.85F
RANTOUL*       CLOUDY    42  38  85 S14G24    29.84F
MATTOON        CLOUDY    42  38  85 SE17G26   29.83F
PARIS*         CLOUDY    43  38  83 SE13      29.90F
$$

ILZ079-100>102-172200-
SOUTHWEST ILLINOIS

CITY           SKY/WX    TMP DP  RH WIND       PRES   REMARKS
ALTON          CLOUDY    52  45  76 S15       29.76F
BELLEVILLE     PTSUNNY   54  43  67 SE9G18    29.77F
CAHOKIA*       MOSUNNY   53  42  66 SE14      29.76F
SPARTA*        CLOUDY    52  43  70 SE14G21   29.81F
$$

ILZ064>066-069>071-074>076-080>082-084>086-088>090-092>094-172200-
SOUTH-CENTRAL ILLINOIS

CITY           SKY/WX    TMP DP  RH WIND       PRES   REMARKS
CARBONDALE     CLOUDY    56  45  66 S9G20     29.85F
CAIRO*         CLOUDY    59  47  66 SE10      29.87F
EFFINGHAM*     CLOUDY    45  42  89 SE12G21   29.87F
MARION         CLOUDY    57  45  62 SE12      29.88F
MT. VERNON     CLOUDY    49  42  77 SE8       29.87F
CENTRALIA*     CLOUDY    51  43  75 SE14G20   29.83F
SALEM*         CLOUDY    49  41  72 SE7       29.85F
METROPOLIS*    CLOUDY    60  46  58 SE7       29.91F
$$

ILZ067-068-072-073-078-083-087-091-172200-
SOUTHEAST ILLINOIS

CITY           SKY/WX    TMP DP  RH WIND       PRES   REMARKS
LAWRENCEVILLE  CLOUDY    47  39  74 SE13      29.92F
FLORA*         CLOUDY    47  41  79 SE13      29.87F
FAIRFIELD*     CLOUDY    47  41  81 SE8       29.87F
HARRISBURG*    PTSUNNY   53  44  71 SE12      29.89F
ROBINSON*      CLOUDY    45  37  75 S9        29.93F
CARMI*         CLOUDY    48  42  79 SE14      29.91F
$$

ABBREVIATIONS USED IN REMARKS
   TC - TEMPERATURE IN CELSIUS
  WCI - WIND CHILL INDEX
   HX - HEAT INDEX
  VSB - VISIBILITY
$$





USA.gov is the U.S. government's official web portal to all federal, state and local government web resources and services.